owner,sensor,date,latitude,longitude,sea_surface_height_above_sea_level,qcFlag 
COMPS,ioos:station:USF.COMPS:FHP:1,2016-06-01T00:00:00Z,28.1530,-82.8010,0.457,1111122 
COMPS,ioos:station:USF.COMPS:FHP:1,2016-06-01T00:06:00Z,28.1530,-82.8010,0.468,1111122 
COMPS,ioos:station:USF.COMPS:FHP:1,2016-06-01T00:12:00Z,28.1530,-82.8010,0.479,1111122 
COMPS,ioos:station:USF.COMPS:FHP:1,2016-06-01T00:18:00Z,28.1530,-82.8010,0.486,1111122 
COMPS,ioos:station:USF.COMPS:FHP:1,2016-06-01T00:24:00Z,28.1530,-82.8010,0.493,1111122 
COMPS,ioos:station:USF.COMPS:FHP:1,2016-06-01T00:30:00Z,28.1530,-82.8010,0.496,1111122 
COMPS,ioos:station:USF.COMPS:FHP:1,2016-06-01T00:36:00Z,28.1530,-82.8010,0.499,1111122 
COMPS,ioos:station:USF.COMPS:FHP:1,2016-06-01T00:42:00Z,28.1530,-82.8010,0.499,1111122 
COMPS,ioos:station:USF.COMPS:FHP:1,2016-06-01T00:54:00Z,28.1530,-82.8010,0.496,1111122 
COMPS,ioos:station:USF.COMPS:FHP:1,2016-06-01T01:00:00Z,28.1530,-82.8010,0.506,1111122 
COMPS,ioos:station:USF.COMPS:FHP:1,2016-06-01T01:06:00Z,28.1530,-82.8010,0.501,1111122 
COMPS,ioos:station:USF.COMPS:FHP:1,2016-06-01T01:12:00Z,28.1530,-82.8010,0.504,1111122 
COMPS,ioos:station:USF.COMPS:FHP:1,2016-06-01T01:18:00Z,28.1530,-82.8010,0.506,1111122 
COMPS,ioos:station:USF.COMPS:FHP:1,2016-06-01T01:24:00Z,28.1530,-82.8010,0.506,1111122 
COMPS,ioos:station:USF.COMPS:FHP:1,2016-06-01T01:30:00Z,28.1530,-82.8010,0.5,1111122 
COMPS,ioos:station:USF.COMPS:FHP:1,2016-06-01T01:36:00Z,28.1530,-82.8010,0.499,1111122 
COMPS,ioos:station:USF.COMPS:FHP:1,2016-06-01T01:42:00Z,28.1530,-82.8010,0.499,1111122 
COMPS,ioos:station:USF.COMPS:FHP:1,2016-06-01T01:48:00Z,28.1530,-82.8010,0.489,1111122 
COMPS,ioos:station:USF.COMPS:FHP:1,2016-06-01T02:00:00Z,28.1530,-82.8010,0.479,1111122 
COMPS,ioos:station:USF.COMPS:FHP:1,2016-06-01T02:06:00Z,28.1530,-82.8010,0.483,1111122 
COMPS,ioos:station:USF.COMPS:FHP:1,2016-06-01T02:12:00Z,28.1530,-82.8010,0.476,1111122 
COMPS,ioos:station:USF.COMPS:FHP:1,2016-06-01T02:18:00Z,28.1530,-82.8010,0.482,1111122 
COMPS,ioos:station:USF.COMPS:FHP:1,2016-06-01T02:24:00Z,28.1530,-82.8010,0.477,1111122 
COMPS,ioos:station:USF.COMPS:FHP:1,2016-06-01T02:36:00Z,28.1530,-82.8010,0.476,1111122 
COMPS,ioos:station:USF.COMPS:FHP:1,2016-06-01T02:42:00Z,28.1530,-82.8010,0.47,1111122 
COMPS,ioos:station:USF.COMPS:FHP:1,2016-06-01T02:48:00Z,28.1530,-82.8010,0.46,1111122 
COMPS,ioos:station:USF.COMPS:FHP:1,2016-06-01T02:54:00Z,28.1530,-82.8010,0.445,1111122 
COMPS,ioos:station:USF.COMPS:FHP:1,2016-06-01T03:00:00Z,28.1530,-82.8010,0.421,1111122 
COMPS,ioos:station:USF.COMPS:FHP:1,2016-06-01T03:06:00Z,28.1530,-82.8010,0.409,1111122 
COMPS,ioos:station:USF.COMPS:FHP:1,2016-06-01T03:18:00Z,28.1530,-82.8010,0.388,1111122 
COMPS,ioos:station:USF.COMPS:FHP:1,2016-06-01T03:24:00Z,28.1530,-82.8010,0.376,1111122 
COMPS,ioos:station:USF.COMPS:FHP:1,2016-06-01T03:30:00Z,28.1530,-82.8010,0.366,1111122 
COMPS,ioos:station:USF.COMPS:FHP:1,2016-06-01T03:36:00Z,28.1530,-82.8010,0.334,1111122 
COMPS,ioos:station:USF.COMPS:FHP:1,2016-06-01T03:42:00Z,28.1530,-82.8010,0.316,1111122 
COMPS,ioos:station:USF.COMPS:FHP:1,2016-06-01T03:48:00Z,28.1530,-82.8010,0.307,1111122 
COMPS,ioos:station:USF.COMPS:FHP:1,2016-06-01T03:54:00Z,28.1530,-82.8010,0.288,1111122 
COMPS,ioos:station:USF.COMPS:FHP:1,2016-06-01T04:06:00Z,28.1530,-82.8010,0.27,1111122 
COMPS,ioos:station:USF.COMPS:FHP:1,2016-06-01T04:12:00Z,28.1530,-82.8010,0.258,1111122 
COMPS,ioos:station:USF.COMPS:FHP:1,2016-06-01T04:24:00Z,28.1530,-82.8010,0.236,1111122 
COMPS,ioos:station:USF.COMPS:FHP:1,2016-06-01T04:42:00Z,28.1530,-82.8010,0.206,1111122 
COMPS,ioos:station:USF.COMPS:FHP:1,2016-06-01T04:48:00Z,28.1530,-82.8010,0.187,1111122 
COMPS,ioos:station:USF.COMPS:FHP:1,2016-06-01T05:00:00Z,28.1530,-82.8010,0.158,1111122 
COMPS,ioos:station:USF.COMPS:FHP:1,2016-06-01T05:06:00Z,28.1530,-82.8010,0.143,1111122 
COMPS,ioos:station:USF.COMPS:FHP:1,2016-06-01T05:18:00Z,28.1530,-82.8010,0.117,1111122 
COMPS,ioos:station:USF.COMPS:FHP:1,2016-06-01T05:30:00Z,28.1530,-82.8010,0.09,1111122 
COMPS,ioos:station:USF.COMPS:FHP:1,2016-06-01T05:36:00Z,28.1530,-82.8010,0.075,1111122 
COMPS,ioos:station:USF.COMPS:FHP:1,2016-06-01T05:42:00Z,28.1530,-82.8010,0.059,1111122 
COMPS,ioos:station:USF.COMPS:FHP:1,2016-06-01T05:48:00Z,28.1530,-82.8010,0.044,1111122 
COMPS,ioos:station:USF.COMPS:FHP:1,2016-06-01T05:54:00Z,28.1530,-82.8010,0.025,1111122 
COMPS,ioos:station:USF.COMPS:FHP:1,2016-06-01T06:00:00Z,28.1530,-82.8010,0.017,1111122 
COMPS,ioos:station:USF.COMPS:FHP:1,2016-06-01T06:06:00Z,28.1530,-82.8010,-0.001,1111122 
COMPS,ioos:station:USF.COMPS:FHP:1,2016-06-01T06:12:00Z,28.1530,-82.8010,-0.011,1111122 
COMPS,ioos:station:USF.COMPS:FHP:1,2016-06-01T06:24:00Z,28.1530,-82.8010,-0.026,1111122 
COMPS,ioos:station:USF.COMPS:FHP:1,2016-06-01T06:42:00Z,28.1530,-82.8010,-0.04,1111122 
COMPS,ioos:station:USF.COMPS:FHP:1,2016-06-01T06:48:00Z,28.1530,-82.8010,-0.038,1111122 
COMPS,ioos:station:USF.COMPS:FHP:1,2016-06-01T06:54:00Z,28.1530,-82.8010,-0.037,1111122 
COMPS,ioos:station:USF.COMPS:FHP:1,2016-06-01T07:00:00Z,28.1530,-82.8010,-0.036,1111122 
COMPS,ioos:station:USF.COMPS:FHP:1,2016-06-01T07:18:00Z,28.1530,-82.8010,-0.025,1111122 
COMPS,ioos:station:USF.COMPS:FHP:1,2016-06-01T07:24:00Z,28.1530,-82.8010,-0.019,1111122 
COMPS,ioos:station:USF.COMPS:FHP:1,2016-06-01T07:30:00Z,28.1530,-82.8010,-0.021,1111122 
COMPS,ioos:station:USF.COMPS:FHP:1,2016-06-01T07:36:00Z,28.1530,-82.8010,-0.011,1111122 
COMPS,ioos:station:USF.COMPS:FHP:1,2016-06-01T07:48:00Z,28.1530,-82.8010,-0.002,1111122 
COMPS,ioos:station:USF.COMPS:FHP:1,2016-06-01T08:00:00Z,28.1530,-82.8010,0.008,1111122 
COMPS,ioos:station:USF.COMPS:FHP:1,2016-06-01T08:06:00Z,28.1530,-82.8010,0.004,1111122 
COMPS,ioos:station:USF.COMPS:FHP:1,2016-06-01T08:12:00Z,28.1530,-82.8010,0.016,1111122 
COMPS,ioos:station:USF.COMPS:FHP:1,2016-06-01T08:18:00Z,28.1530,-82.8010,0.017,1111122 
COMPS,ioos:station:USF.COMPS:FHP:1,2016-06-01T08:24:00Z,28.1530,-82.8010,0.028,1111122 
COMPS,ioos:station:USF.COMPS:FHP:1,2016-06-01T08:42:00Z,28.1530,-82.8010,0.05,1111122 
COMPS,ioos:station:USF.COMPS:FHP:1,2016-06-01T08:48:00Z,28.1530,-82.8010,0.065,1111122 
COMPS,ioos:station:USF.COMPS:FHP:1,2016-06-01T08:54:00Z,28.1530,-82.8010,0.078,1111122 
COMPS,ioos:station:USF.COMPS:FHP:1,2016-06-01T09:00:00Z,28.1530,-82.8010,0.093,1111122 
COMPS,ioos:station:USF.COMPS:FHP:1,2016-06-01T09:06:00Z,28.1530,-82.8010,0.109,1111122 
COMPS,ioos:station:USF.COMPS:FHP:1,2016-06-01T09:12:00Z,28.1530,-82.8010,0.126,1111122 
COMPS,ioos:station:USF.COMPS:FHP:1,2016-06-01T09:18:00Z,28.1530,-82.8010,0.14,1111122 
COMPS,ioos:station:USF.COMPS:FHP:1,2016-06-01T09:24:00Z,28.1530,-82.8010,0.156,1111122 
COMPS,ioos:station:USF.COMPS:FHP:1,2016-06-01T09:30:00Z,28.1530,-82.8010,0.172,1111122 
COMPS,ioos:station:USF.COMPS:FHP:1,2016-06-01T09:36:00Z,28.1530,-82.8010,0.184,1111122 
COMPS,ioos:station:USF.COMPS:FHP:1,2016-06-01T09:42:00Z,28.1530,-82.8010,0.207,1111122 
COMPS,ioos:station:USF.COMPS:FHP:1,2016-06-01T09:48:00Z,28.1530,-82.8010,0.222,1111122 
COMPS,ioos:station:USF.COMPS:FHP:1,2016-06-01T09:54:00Z,28.1530,-82.8010,0.241,1111122 
COMPS,ioos:station:USF.COMPS:FHP:1,2016-06-01T10:00:00Z,28.1530,-82.8010,0.255,1111122 
COMPS,ioos:station:USF.COMPS:FHP:1,2016-06-01T10:06:00Z,28.1530,-82.8010,0.27,1111122 
COMPS,ioos:station:USF.COMPS:FHP:1,2016-06-01T10:12:00Z,28.1530,-82.8010,0.289,1111122 
COMPS,ioos:station:USF.COMPS:FHP:1,2016-06-01T10:18:00Z,28.1530,-82.8010,0.304,1111122 
COMPS,ioos:station:USF.COMPS:FHP:1,2016-06-01T10:24:00Z,28.1530,-82.8010,0.319,1111122 
COMPS,ioos:station:USF.COMPS:FHP:1,2016-06-01T10:30:00Z,28.1530,-82.8010,0.334,1111122 
COMPS,ioos:station:USF.COMPS:FHP:1,2016-06-01T10:36:00Z,28.1530,-82.8010,0.349,1111122 
COMPS,ioos:station:USF.COMPS:FHP:1,2016-06-01T10:42:00Z,28.1530,-82.8010,0.36,1111122 
COMPS,ioos:station:USF.COMPS:FHP:1,2016-06-01T10:48:00Z,28.1530,-82.8010,0.377,1111122 
COMPS,ioos:station:USF.COMPS:FHP:1,2016-06-01T10:54:00Z,28.1530,-82.8010,0.387,1111122 
COMPS,ioos:station:USF.COMPS:FHP:1,2016-06-01T11:00:00Z,28.1530,-82.8010,0.413,1111122 
COMPS,ioos:station:USF.COMPS:FHP:1,2016-06-01T11:06:00Z,28.1530,-82.8010,0.423,1111122 
COMPS,ioos:station:USF.COMPS:FHP:1,2016-06-01T11:12:00Z,28.1530,-82.8010,0.438,1111122 
COMPS,ioos:station:USF.COMPS:FHP:1,2016-06-01T11:18:00Z,28.1530,-82.8010,0.445,1111122 
COMPS,ioos:station:USF.COMPS:FHP:1,2016-06-01T11:24:00Z,28.1530,-82.8010,0.455,1111122 
COMPS,ioos:station:USF.COMPS:FHP:1,2016-06-01T11:30:00Z,28.1530,-82.8010,0.462,1111122 
COMPS,ioos:station:USF.COMPS:FHP:1,2016-06-01T11:36:00Z,28.1530,-82.8010,0.48,1111122 
COMPS,ioos:station:USF.COMPS:FHP:1,2016-06-01T11:42:00Z,28.1530,-82.8010,0.486,1111122 
COMPS,ioos:station:USF.COMPS:FHP:1,2016-06-01T11:48:00Z,28.1530,-82.8010,0.503,1111122 
COMPS,ioos:station:USF.COMPS:FHP:1,2016-06-01T11:54:00Z,28.1530,-82.8010,0.51,1111122 
COMPS,ioos:station:USF.COMPS:FHP:1,2016-06-01T12:00:00Z,28.1530,-82.8010,0.522,1111122 
COMPS,ioos:station:USF.COMPS:FHP:1,2016-06-01T12:06:00Z,28.1530,-82.8010,0.527,1111122 
COMPS,ioos:station:USF.COMPS:FHP:1,2016-06-01T12:12:00Z,28.1530,-82.8010,0.539,1111122 
COMPS,ioos:station:USF.COMPS:FHP:1,2016-06-01T12:24:00Z,28.1530,-82.8010,0.553,1111122 
COMPS,ioos:station:USF.COMPS:FHP:1,2016-06-01T12:30:00Z,28.1530,-82.8010,0.564,1111122 
COMPS,ioos:station:USF.COMPS:FHP:1,2016-06-01T12:36:00Z,28.1530,-82.8010,0.568,1111122 
COMPS,ioos:station:USF.COMPS:FHP:1,2016-06-01T12:48:00Z,28.1530,-82.8010,0.593,1111122 
COMPS,ioos:station:USF.COMPS:FHP:1,2016-06-01T12:54:00Z,28.1530,-82.8010,0.605,1111122 
COMPS,ioos:station:USF.COMPS:FHP:1,2016-06-01T13:00:00Z,28.1530,-82.8010,0.611,1111122 
COMPS,ioos:station:USF.COMPS:FHP:1,2016-06-01T13:06:00Z,28.1530,-82.8010,0.622,1111122 
COMPS,ioos:station:USF.COMPS:FHP:1,2016-06-01T13:12:00Z,28.1530,-82.8010,0.626,1111122 
COMPS,ioos:station:USF.COMPS:FHP:1,2016-06-01T13:18:00Z,28.1530,-82.8010,0.635,1111122 
COMPS,ioos:station:USF.COMPS:FHP:1,2016-06-01T13:24:00Z,28.1530,-82.8010,0.633,1111122 
COMPS,ioos:station:USF.COMPS:FHP:1,2016-06-01T13:30:00Z,28.1530,-82.8010,0.638,1111122 
COMPS,ioos:station:USF.COMPS:FHP:1,2016-06-01T13:36:00Z,28.1530,-82.8010,0.627,1111122 
COMPS,ioos:station:USF.COMPS:FHP:1,2016-06-01T13:42:00Z,28.1530,-82.8010,0.626,1111122 
COMPS,ioos:station:USF.COMPS:FHP:1,2016-06-01T13:48:00Z,28.1530,-82.8010,0.62,1111122 
COMPS,ioos:station:USF.COMPS:FHP:1,2016-06-01T13:54:00Z,28.1530,-82.8010,0.618,1111122 
COMPS,ioos:station:USF.COMPS:FHP:1,2016-06-01T14:00:00Z,28.1530,-82.8010,0.615,1111122 
COMPS,ioos:station:USF.COMPS:FHP:1,2016-06-01T14:06:00Z,28.1530,-82.8010,0.615,1111122 
COMPS,ioos:station:USF.COMPS:FHP:1,2016-06-01T14:12:00Z,28.1530,-82.8010,0.62,1111122 
COMPS,ioos:station:USF.COMPS:FHP:1,2016-06-01T14:18:00Z,28.1530,-82.8010,0.619,1111122 
COMPS,ioos:station:USF.COMPS:FHP:1,2016-06-01T14:24:00Z,28.1530,-82.8010,0.611,1111122 
COMPS,ioos:station:USF.COMPS:FHP:1,2016-06-01T14:30:00Z,28.1530,-82.8010,0.604,1111122 
COMPS,ioos:station:USF.COMPS:FHP:1,2016-06-01T14:36:00Z,28.1530,-82.8010,0.595,1111122 
COMPS,ioos:station:USF.COMPS:FHP:1,2016-06-01T14:42:00Z,28.1530,-82.8010,0.586,1111122 
COMPS,ioos:station:USF.COMPS:FHP:1,2016-06-01T14:48:00Z,28.1530,-82.8010,0.577,1111122 
COMPS,ioos:station:USF.COMPS:FHP:1,2016-06-01T14:54:00Z,28.1530,-82.8010,0.581,1111122 
COMPS,ioos:station:USF.COMPS:FHP:1,2016-06-01T15:00:00Z,28.1530,-82.8010,0.561,1111122 
COMPS,ioos:station:USF.COMPS:FHP:1,2016-06-01T15:06:00Z,28.1530,-82.8010,0.554,1111122 
COMPS,ioos:station:USF.COMPS:FHP:1,2016-06-01T15:12:00Z,28.1530,-82.8010,0.546,1111122 
COMPS,ioos:station:USF.COMPS:FHP:1,2016-06-01T15:18:00Z,28.1530,-82.8010,0.536,1111122 
COMPS,ioos:station:USF.COMPS:FHP:1,2016-06-01T15:24:00Z,28.1530,-82.8010,0.531,1111122 
COMPS,ioos:station:USF.COMPS:FHP:1,2016-06-01T15:30:00Z,28.1530,-82.8010,0.511,1111122 
COMPS,ioos:station:USF.COMPS:FHP:1,2016-06-01T15:36:00Z,28.1530,-82.8010,0.512,1111122 
COMPS,ioos:station:USF.COMPS:FHP:1,2016-06-01T15:42:00Z,28.1530,-82.8010,0.498,1111122 
COMPS,ioos:station:USF.COMPS:FHP:1,2016-06-01T15:48:00Z,28.1530,-82.8010,0.481,1111122 
COMPS,ioos:station:USF.COMPS:FHP:1,2016-06-01T15:54:00Z,28.1530,-82.8010,0.462,1111122 
COMPS,ioos:station:USF.COMPS:FHP:1,2016-06-01T16:00:00Z,28.1530,-82.8010,0.443,1111122 
COMPS,ioos:station:USF.COMPS:FHP:1,2016-06-01T16:06:00Z,28.1530,-82.8010,0.425,1111122 
COMPS,ioos:station:USF.COMPS:FHP:1,2016-06-01T16:12:00Z,28.1530,-82.8010,0.401,1111122 
COMPS,ioos:station:USF.COMPS:FHP:1,2016-06-01T16:18:00Z,28.1530,-82.8010,0.384,1111122 
COMPS,ioos:station:USF.COMPS:FHP:1,2016-06-01T16:24:00Z,28.1530,-82.8010,0.366,1111122 
COMPS,ioos:station:USF.COMPS:FHP:1,2016-06-01T16:30:00Z,28.1530,-82.8010,0.347,1111122 
COMPS,ioos:station:USF.COMPS:FHP:1,2016-06-01T16:36:00Z,28.1530,-82.8010,0.318,1111122 
COMPS,ioos:station:USF.COMPS:FHP:1,2016-06-01T16:42:00Z,28.1530,-82.8010,0.303,1111122 
COMPS,ioos:station:USF.COMPS:FHP:1,2016-06-01T16:48:00Z,28.1530,-82.8010,0.28,1111122 
COMPS,ioos:station:USF.COMPS:FHP:1,2016-06-01T16:54:00Z,28.1530,-82.8010,0.263,1111122 
COMPS,ioos:station:USF.COMPS:FHP:1,2016-06-01T17:00:00Z,28.1530,-82.8010,0.237,1111122 
COMPS,ioos:station:USF.COMPS:FHP:1,2016-06-01T17:06:00Z,28.1530,-82.8010,0.227,1111122 
COMPS,ioos:station:USF.COMPS:FHP:1,2016-06-01T17:12:00Z,28.1530,-82.8010,0.203,1111122 
COMPS,ioos:station:USF.COMPS:FHP:1,2016-06-01T17:18:00Z,28.1530,-82.8010,0.188,1111122 
COMPS,ioos:station:USF.COMPS:FHP:1,2016-06-01T17:24:00Z,28.1530,-82.8010,0.174,1111122 
COMPS,ioos:station:USF.COMPS:FHP:1,2016-06-01T17:30:00Z,28.1530,-82.8010,0.152,1111122 
COMPS,ioos:station:USF.COMPS:FHP:1,2016-06-01T17:36:00Z,28.1530,-82.8010,0.134,1111122 
COMPS,ioos:station:USF.COMPS:FHP:1,2016-06-01T17:42:00Z,28.1530,-82.8010,0.116,1111122 
COMPS,ioos:station:USF.COMPS:FHP:1,2016-06-01T17:48:00Z,28.1530,-82.8010,0.098,1111122 
COMPS,ioos:station:USF.COMPS:FHP:1,2016-06-01T17:54:00Z,28.1530,-82.8010,0.085,1111122 
COMPS,ioos:station:USF.COMPS:FHP:1,2016-06-01T18:00:00Z,28.1530,-82.8010,0.072,1111122 
COMPS,ioos:station:USF.COMPS:FHP:1,2016-06-01T18:06:00Z,28.1530,-82.8010,0.048,1111122 
COMPS,ioos:station:USF.COMPS:FHP:1,2016-06-01T18:12:00Z,28.1530,-82.8010,0.037,1111122 
COMPS,ioos:station:USF.COMPS:FHP:1,2016-06-01T18:18:00Z,28.1530,-82.8010,0.009,1111122 
COMPS,ioos:station:USF.COMPS:FHP:1,2016-06-01T18:24:00Z,28.1530,-82.8010,-0.006,1111122 
COMPS,ioos:station:USF.COMPS:FHP:1,2016-06-01T18:30:00Z,28.1530,-82.8010,-0.019,1111122 
COMPS,ioos:station:USF.COMPS:FHP:1,2016-06-01T18:36:00Z,28.1530,-82.8010,-0.036,1111122 
COMPS,ioos:station:USF.COMPS:FHP:1,2016-06-01T18:42:00Z,28.1530,-82.8010,-0.053,1111122 
COMPS,ioos:station:USF.COMPS:FHP:1,2016-06-01T18:48:00Z,28.1530,-82.8010,-0.068,1111122 
COMPS,ioos:station:USF.COMPS:FHP:1,2016-06-01T18:54:00Z,28.1530,-82.8010,-0.084,1111122 
COMPS,ioos:station:USF.COMPS:FHP:1,2016-06-01T19:00:00Z,28.1530,-82.8010,-0.097,1111122 
COMPS,ioos:station:USF.COMPS:FHP:1,2016-06-01T19:06:00Z,28.1530,-82.8010,-0.106,1111122 
COMPS,ioos:station:USF.COMPS:FHP:1,2016-06-01T19:12:00Z,28.1530,-82.8010,-0.118,1111122 
COMPS,ioos:station:USF.COMPS:FHP:1,2016-06-01T19:18:00Z,28.1530,-82.8010,-0.13,1111122 
COMPS,ioos:station:USF.COMPS:FHP:1,2016-06-01T19:24:00Z,28.1530,-82.8010,-0.149,1111122 
COMPS,ioos:station:USF.COMPS:FHP:1,2016-06-01T19:30:00Z,28.1530,-82.8010,-0.162,1111122 
COMPS,ioos:station:USF.COMPS:FHP:1,2016-06-01T19:36:00Z,28.1530,-82.8010,-0.169,1111122 
COMPS,ioos:station:USF.COMPS:FHP:1,2016-06-01T19:42:00Z,28.1530,-82.8010,-0.182,1111122 
COMPS,ioos:station:USF.COMPS:FHP:1,2016-06-01T19:48:00Z,28.1530,-82.8010,-0.197,1111122 
COMPS,ioos:station:USF.COMPS:FHP:1,2016-06-01T19:54:00Z,28.1530,-82.8010,-0.207,1111122 
COMPS,ioos:station:USF.COMPS:FHP:1,2016-06-01T20:00:00Z,28.1530,-82.8010,-0.217,1111122 
COMPS,ioos:station:USF.COMPS:FHP:1,2016-06-01T20:06:00Z,28.1530,-82.8010,-0.224,1111122 
COMPS,ioos:station:USF.COMPS:FHP:1,2016-06-01T20:12:00Z,28.1530,-82.8010,-0.228,1111122 
COMPS,ioos:station:USF.COMPS:FHP:1,2016-06-01T20:18:00Z,28.1530,-82.8010,-0.234,1111122 
COMPS,ioos:station:USF.COMPS:FHP:1,2016-06-01T20:24:00Z,28.1530,-82.8010,-0.232,1111122 
COMPS,ioos:station:USF.COMPS:FHP:1,2016-06-01T20:30:00Z,28.1530,-82.8010,-0.242,1111122 
COMPS,ioos:station:USF.COMPS:FHP:1,2016-06-01T20:36:00Z,28.1530,-82.8010,-0.242,1111122 
COMPS,ioos:station:USF.COMPS:FHP:1,2016-06-01T20:42:00Z,28.1530,-82.8010,-0.242,1111122 
COMPS,ioos:station:USF.COMPS:FHP:1,2016-06-01T20:48:00Z,28.1530,-82.8010,-0.243,1111122 
COMPS,ioos:station:USF.COMPS:FHP:1,2016-06-01T20:54:00Z,28.1530,-82.8010,-0.238,1111122 
COMPS,ioos:station:USF.COMPS:FHP:1,2016-06-01T21:00:00Z,28.1530,-82.8010,-0.229,1111122 
COMPS,ioos:station:USF.COMPS:FHP:1,2016-06-01T21:06:00Z,28.1530,-82.8010,-0.222,1111122 
COMPS,ioos:station:USF.COMPS:FHP:1,2016-06-01T21:12:00Z,28.1530,-82.8010,-0.215,1111122 
COMPS,ioos:station:USF.COMPS:FHP:1,2016-06-01T21:18:00Z,28.1530,-82.8010,-0.206,1111122 
COMPS,ioos:station:USF.COMPS:FHP:1,2016-06-01T21:24:00Z,28.1530,-82.8010,-0.198,1111122 
COMPS,ioos:station:USF.COMPS:FHP:1,2016-06-01T21:30:00Z,28.1530,-82.8010,-0.189,1111122 
COMPS,ioos:station:USF.COMPS:FHP:1,2016-06-01T21:36:00Z,28.1530,-82.8010,-0.18,1111122 
COMPS,ioos:station:USF.COMPS:FHP:1,2016-06-01T21:42:00Z,28.1530,-82.8010,-0.171,1111122 
COMPS,ioos:station:USF.COMPS:FHP:1,2016-06-01T21:48:00Z,28.1530,-82.8010,-0.156,1111122 
COMPS,ioos:station:USF.COMPS:FHP:1,2016-06-01T21:54:00Z,28.1530,-82.8010,-0.146,1111122 
COMPS,ioos:station:USF.COMPS:FHP:1,2016-06-01T22:00:00Z,28.1530,-82.8010,-0.131,1111122 
COMPS,ioos:station:USF.COMPS:FHP:1,2016-06-01T22:06:00Z,28.1530,-82.8010,-0.12,1111122 
COMPS,ioos:station:USF.COMPS:FHP:1,2016-06-01T22:12:00Z,28.1530,-82.8010,-0.104,1111122 
COMPS,ioos:station:USF.COMPS:FHP:1,2016-06-01T22:18:00Z,28.1530,-82.8010,-0.093,1111122 
COMPS,ioos:station:USF.COMPS:FHP:1,2016-06-01T22:24:00Z,28.1530,-82.8010,-0.077,1111122 
COMPS,ioos:station:USF.COMPS:FHP:1,2016-06-01T22:30:00Z,28.1530,-82.8010,-0.062,1111122 
COMPS,ioos:station:USF.COMPS:FHP:1,2016-06-01T22:36:00Z,28.1530,-82.8010,-0.045,1111122 
COMPS,ioos:station:USF.COMPS:FHP:1,2016-06-01T22:42:00Z,28.1530,-82.8010,-0.031,1111122 
COMPS,ioos:station:USF.COMPS:FHP:1,2016-06-01T22:48:00Z,28.1530,-82.8010,-0.011,1111122 
COMPS,ioos:station:USF.COMPS:FHP:1,2016-06-01T22:54:00Z,28.1530,-82.8010,0.002,1111122 
COMPS,ioos:station:USF.COMPS:FHP:1,2016-06-01T23:00:00Z,28.1530,-82.8010,0.021,1111122 
COMPS,ioos:station:USF.COMPS:FHP:1,2016-06-01T23:06:00Z,28.1530,-82.8010,0.039,1111122 
COMPS,ioos:station:USF.COMPS:FHP:1,2016-06-01T23:12:00Z,28.1530,-82.8010,0.056,1111122 
COMPS,ioos:station:USF.COMPS:FHP:1,2016-06-01T23:18:00Z,28.1530,-82.8010,0.069,1111122 
COMPS,ioos:station:USF.COMPS:FHP:1,2016-06-01T23:24:00Z,28.1530,-82.8010,0.09,1111122 
COMPS,ioos:station:USF.COMPS:FHP:1,2016-06-01T23:30:00Z,28.1530,-82.8010,0.116,1111122 
COMPS,ioos:station:USF.COMPS:FHP:1,2016-06-01T23:36:00Z,28.1530,-82.8010,0.134,1111122 
COMPS,ioos:station:USF.COMPS:FHP:1,2016-06-01T23:42:00Z,28.1530,-82.8010,0.156,1111122 
COMPS,ioos:station:USF.COMPS:FHP:1,2016-06-01T23:48:00Z,28.1530,-82.8010,0.179,1111122 
COMPS,ioos:station:USF.COMPS:FHP:1,2016-06-01T23:54:00Z,28.1530,-82.8010,0.201,1111122 
COMPS,ioos:station:USF.COMPS:FHP:1,2016-06-02T00:00:00Z,28.1530,-82.8010,0.219,1111122 
COMPS,ioos:station:USF.COMPS:FHP:1,2016-06-02T00:06:00Z,28.1530,-82.8010,0.237,1111122 
COMPS,ioos:station:USF.COMPS:FHP:1,2016-06-02T00:12:00Z,28.1530,-82.8010,0.26,1111122 
COMPS,ioos:station:USF.COMPS:FHP:1,2016-06-02T00:18:00Z,28.1530,-82.8010,0.283,1111122 
COMPS,ioos:station:USF.COMPS:FHP:1,2016-06-02T00:24:00Z,28.1530,-82.8010,0.305,1111122 
COMPS,ioos:station:USF.COMPS:FHP:1,2016-06-02T00:30:00Z,28.1530,-82.8010,0.327,1111122 
COMPS,ioos:station:USF.COMPS:FHP:1,2016-06-02T00:36:00Z,28.1530,-82.8010,0.343,1111122 
COMPS,ioos:station:USF.COMPS:FHP:1,2016-06-02T00:42:00Z,28.1530,-82.8010,0.363,1111122 
COMPS,ioos:station:USF.COMPS:FHP:1,2016-06-02T00:48:00Z,28.1530,-82.8010,0.375,1111122 
COMPS,ioos:station:USF.COMPS:FHP:1,2016-06-02T00:54:00Z,28.1530,-82.8010,0.385,1111122 
COMPS,ioos:station:USF.COMPS:FHP:1,2016-06-02T01:00:00Z,28.1530,-82.8010,0.397,1111122 
COMPS,ioos:station:USF.COMPS:FHP:1,2016-06-02T01:12:00Z,28.1530,-82.8010,0.425,1111122 
COMPS,ioos:station:USF.COMPS:FHP:1,2016-06-02T01:18:00Z,28.1530,-82.8010,0.432,1111122 
COMPS,ioos:station:USF.COMPS:FHP:1,2016-06-02T01:24:00Z,28.1530,-82.8010,0.452,1111122 
COMPS,ioos:station:USF.COMPS:FHP:1,2016-06-02T01:30:00Z,28.1530,-82.8010,0.462,1111122 
COMPS,ioos:station:USF.COMPS:FHP:1,2016-06-02T01:36:00Z,28.1530,-82.8010,0.476,1111122 
COMPS,ioos:station:USF.COMPS:FHP:1,2016-06-02T01:42:00Z,28.1530,-82.8010,0.489,1111122 
COMPS,ioos:station:USF.COMPS:FHP:1,2016-06-02T01:48:00Z,28.1530,-82.8010,0.497,1111122 
COMPS,ioos:station:USF.COMPS:FHP:1,2016-06-02T01:54:00Z,28.1530,-82.8010,0.513,1111122 
COMPS,ioos:station:USF.COMPS:FHP:1,2016-06-02T02:00:00Z,28.1530,-82.8010,0.524,1111122 
COMPS,ioos:station:USF.COMPS:FHP:1,2016-06-02T02:06:00Z,28.1530,-82.8010,0.532,1111122 
COMPS,ioos:station:USF.COMPS:FHP:1,2016-06-02T02:12:00Z,28.1530,-82.8010,0.541,1111122 
COMPS,ioos:station:USF.COMPS:FHP:1,2016-06-02T02:18:00Z,28.1530,-82.8010,0.546,1111122 
COMPS,ioos:station:USF.COMPS:FHP:1,2016-06-02T02:30:00Z,28.1530,-82.8010,0.554,1111122 
COMPS,ioos:station:USF.COMPS:FHP:1,2016-06-02T02:36:00Z,28.1530,-82.8010,0.554,1111122 
COMPS,ioos:station:USF.COMPS:FHP:1,2016-06-02T02:42:00Z,28.1530,-82.8010,0.547,1111122 
COMPS,ioos:station:USF.COMPS:FHP:1,2016-06-02T02:48:00Z,28.1530,-82.8010,0.547,1111122 
COMPS,ioos:station:USF.COMPS:FHP:1,2016-06-02T03:00:00Z,28.1530,-82.8010,0.536,1111122 
COMPS,ioos:station:USF.COMPS:FHP:1,2016-06-02T03:06:00Z,28.1530,-82.8010,0.521,1111122 
COMPS,ioos:station:USF.COMPS:FHP:1,2016-06-02T03:12:00Z,28.1530,-82.8010,0.519,1111122 
COMPS,ioos:station:USF.COMPS:FHP:1,2016-06-02T03:24:00Z,28.1530,-82.8010,0.506,1111122 
COMPS,ioos:station:USF.COMPS:FHP:1,2016-06-02T03:30:00Z,28.1530,-82.8010,0.503,1111122 
COMPS,ioos:station:USF.COMPS:FHP:1,2016-06-02T03:36:00Z,28.1530,-82.8010,0.489,1111122 
COMPS,ioos:station:USF.COMPS:FHP:1,2016-06-02T03:42:00Z,28.1530,-82.8010,0.482,1111122 
COMPS,ioos:station:USF.COMPS:FHP:1,2016-06-02T03:48:00Z,28.1530,-82.8010,0.476,1111122 
COMPS,ioos:station:USF.COMPS:FHP:1,2016-06-02T03:54:00Z,28.1530,-82.8010,0.469,1111122 
COMPS,ioos:station:USF.COMPS:FHP:1,2016-06-02T04:00:00Z,28.1530,-82.8010,0.464,1111122 
COMPS,ioos:station:USF.COMPS:FHP:1,2016-06-02T04:06:00Z,28.1530,-82.8010,0.444,1111122 
COMPS,ioos:station:USF.COMPS:FHP:1,2016-06-02T04:12:00Z,28.1530,-82.8010,0.431,1111122 
COMPS,ioos:station:USF.COMPS:FHP:1,2016-06-02T04:18:00Z,28.1530,-82.8010,0.411,1111122 
COMPS,ioos:station:USF.COMPS:FHP:1,2016-06-02T04:24:00Z,28.1530,-82.8010,0.39,1111122 
COMPS,ioos:station:USF.COMPS:FHP:1,2016-06-02T04:30:00Z,28.1530,-82.8010,0.384,1111122 
COMPS,ioos:station:USF.COMPS:FHP:1,2016-06-02T04:36:00Z,28.1530,-82.8010,0.377,1111122 
COMPS,ioos:station:USF.COMPS:FHP:1,2016-06-02T04:42:00Z,28.1530,-82.8010,0.371,1111122 
COMPS,ioos:station:USF.COMPS:FHP:1,2016-06-02T04:48:00Z,28.1530,-82.8010,0.375,1111122 
COMPS,ioos:station:USF.COMPS:FHP:1,2016-06-02T04:54:00Z,28.1530,-82.8010,0.365,1111122 
COMPS,ioos:station:USF.COMPS:FHP:1,2016-06-02T05:06:00Z,28.1530,-82.8010,0.344,1111122 
COMPS,ioos:station:USF.COMPS:FHP:1,2016-06-02T05:12:00Z,28.1530,-82.8010,0.326,1111122 
COMPS,ioos:station:USF.COMPS:FHP:1,2016-06-02T05:18:00Z,28.1530,-82.8010,0.313,1111122 
COMPS,ioos:station:USF.COMPS:FHP:1,2016-06-02T05:24:00Z,28.1530,-82.8010,0.296,1111122 
COMPS,ioos:station:USF.COMPS:FHP:1,2016-06-02T05:30:00Z,28.1530,-82.8010,0.283,1111122 
COMPS,ioos:station:USF.COMPS:FHP:1,2016-06-02T05:36:00Z,28.1530,-82.8010,0.268,1111122 
COMPS,ioos:station:USF.COMPS:FHP:1,2016-06-02T05:42:00Z,28.1530,-82.8010,0.245,1111122 